Погода в Пластуне

Россия / Приморский край     44°45′35″N   136°16′56″E
темп.,
°C
ветер,
м/с
пор.,
м/с
влажн.,
%
обл.,
%
осадки,
мм/ч
давл.,
гПа
погр.,
м
18 мая, вт
вт1801:00+11сз2261100 0.0 100622
04:00+11зсз22560 0.0 100621
07:00+13зсз22550 0.0 100758
10:00+22ююв11320 0.0 1007615
13:00+22юв34340 0.0 1007735
16:00+22ююв473178 0.0 1006615
19:00+17ююв125395 0.0 100746
22:00+12зсз115999 0.0 100811
19 мая, ср
ср1901:00+11зсз1162100 0.0 100712
04:00+10зсз116555 0.0 100712
07:00+13зсз016210 0.0 100846
10:00+18юв22486 0.0 1007377
13:00+21ююв35375 0.0 1006598
16:00+19ю37422 0.0 1006477
19:00+15ююв236332 0.0 1006112
22:00+10з11784 0.1 100813
20 мая, чт
чт2001:00+11зсз11774 0.1 100813
04:00+11зсз11805 0.1 100811
07:00+15з116794 0.0 100946
10:00+21юв22496 0.0 1009308
13:00+21юв34496 0.0 1009387
16:00+23ююв364319 0.0 1007418
19:00+17в116689 0.0 100746
22:00+15зсз11727 0.0 100814
21 мая, пт
пт2101:00+16зсз226535 0.0 100719
04:00+15зсз2259100 0.0 100722
07:00+17сз2258100 0.0 100745
10:00+24вюв1140100 0.0 1006326
13:00+23ююв3340100 0.0 1005484
16:00+19ю3648100 0.0 1004321
19:00+16ююз2363100 0.0 100549
22:00+15з1160100 0.0 100611
22 мая, сб
сб2201:00+14сз2257100 0.0 100531
04:00+14св2358100 0.0 100539
07:00+11всв31175100 0.0 1007388
10:00+14в5962100 0.0 1008539
13:00+17всв5134797 0.0 1007789
16:00+15в41158100 0.0 1008510
19:00+12всв3107298 0.0 1010491
22:00+10всв1579100 0.0 1011169